Wind_Speed
11 11 11 11 11 11 11 11 11 10 9 9 9 9 9 9 8 8 9 9 9 10 10 10 9 9 10 10 11 11 10 9 9 9 9 9 9 9 9 9 9 8 8 8
11 11 11 11 11 11 12 11 11 10 10 9 9 9 9 10 9 9 9 9 9 9 9 9 9 9 9 9 10 10 9 9 9 10 10 9 10 10 10 10 9 9 9 8
11 10 11 11 11 11 11 11 10 10 10 10 10 9 9 9 9 8 8 8 8 8 8 8 8 8 8 8 8 8 8 8 9 9 9 9 9 9 9 9 9 9 9 9
10 10 10 10 11 11 10 10 10 11 10 10 10 9 9 9 9 8 8 8 8 7 7 7 7 7 8 8 8 8 8 8 8 8 8 9 9 9 9 10 10 10 9 10
10 10 10 10 10 11 11 11 11 10 10 10 10 10 8 8 9 8 8 7 7 7 7 7 8 8 8 9 9 9 9 8 8 8 9 9 9 9 9 10 10 10 10 10
10 10 11 11 11 11 12 12 12 11 11 11 10 10 9 8 8 8 7 7 7 7 8 8 8 8 9 9 9 9 9 9 9 9 9 9 9 9 10 10 10 9 9 9
10 10 10 11 12 11 12 13 13 12 12 11 11 11 10 9 9 8 8 8 8 8 9 9 9 9 9 9 9 10 10 10 10 10 10 10 10 10 10 10 10 10 10 10
11 10 10 11 11 12 12 13 13 13 13 12 13 13 11 10 10 10 10 9 9 9 10 10 9 10 10 11 11 11 11 11 11 12 12 11 12 11 11 11 10 11 11 11
11 10 10 10 11 12 12 13 14 15 15 15 14 14 13 12 12 11 11 11 10 10 11 11 11 11 11 11 12 12 12 12 12 12 12 12 12 12 12 12 12 12 12 12
12 12 11 11 12 12 12 13 14 15 16 16 15 15 13 12 12 12 12 12 11 11 11 11 12 12 12 12 12 12 12 12 12 12 12 13 13 13 13 13 13 13 13 12
13 13 12 12 11 12 13 14 15 16 17 16 16 15 14 13 13 14 13 13 13 13 13 13 13 14 14 14 14 14 14 13 13 12 13 13 13 13 14 13 14 14 14 14
14 14 13 12 12 14 14 15 15 16 17 17 18 16 15 15 15 15 15 14 14 15 14 14 15 15 15 15 15 15 15 15 15 15 14 14 14 14 14 14 15 15 15 16
15 15 15 14 14 14 15 16 16 17 17 17 17 17 16 17 16 17 17 16 16 15 16 16 16 16 16 16 17 17 17 16 17 17 17 16 16 16 16 16 16 16 17 17
16 17 17 17 16 16 16 16 17 18 18 19 18 18 18 19 19 19 19 18 17 17 17 17 17 17 18 18 18 18 19 18 18 18 18 18 18 18 18 18 18 18 18 18
16 17 18 18 18 18 18 17 17 19 19 20 20 20 20 20 21 21 21 21 20 20 20 20 19 20 20 20 21 21 21 21 20 20 20 20 19 20 20 20 20 20 20 20
17 18 18 18 19 20 19 18 18 19 20 21 21 21 21 21 22 22 23 23 23 22 22 22 22 22 22 22 22 22 22 22 22 22 22 22 22 22 22 22 23 22 22 22
18 19 19 19 19 20 20 19 19 20 21 21 22 22 21 22 23 23 23 24 24 24 24 24 24 24 24 24 24 23 24 24 23 23 23 24 24 24 24 24 24 24 24 24
19 19 20 20 20 22 20 20 20 21 21 22 23 23 23 23 24 25 25 26 25 25 26 26 26 26 25 25 25 25 26 25 25 25 25 25 25 25 25 25 25 25 25 26
20 20 21 21 21 21 20 20 21 22 22 22 23 24 24 24 25 26 26 27 27 27 27 28 28 27 27 27 27 27 27 27 27 27 28 27 27 27 26 26 26 27 27 27
20 20 21 22 22 21 20 21 21 23 23 23 23 24 25 26 26 26 27 27 27 28 29 29 28 28 28 29 29 29 29 29 28 29 29 29 29 29 29 29 29 29 29 29
20 20 21 21 22 21 21 21 21 23 23 23 24 24 25 25 26 26 27 28 28 29 29 30 30 30 30 30 30 30 30 30 30 30 30 30 31 31 31 31 31 30 31 30
20 20 21 22 22 22 22 22 22 23 24 24 25 26 26 26 26 27 27 28 28 28 29 30 30 31 31 31 31 31 31 31 31 31 31 31 32 31 32 32 32 32 32 31
21 21 22 22 23 23 23 23 23 24 25 26 26 27 27 27 27 27 28 28 29 29 29 29 30 31 30 31 31 31 32 32 33 33 33 33 33 32 32 32 33 33 33 32
22 22 23 23 23 24 24 25 25 26 26 26 26 27 28 29 29 29 29 29 30 30 30 30 30 31 31 31 31 32 32 32 33 33 33 33 34 33 32 32 33 33 33 34
22 23 23 24 24 24 25 26 27 27 28 28 28 28 28 29 30 30 30 30 31 31 31 31 31 31 32 32 32 33 32 32 33 32 33 33 33 33 33 34 34 34 34 34
23 24 25 25 25 27 27 28 29 29 29 29 29 29 30 30 31 31 31 31 31 31 31 32 32 32 32 32 33 33 33 33 33 33 33 32 33 33 34 34 34 35 35 35
Wind_Direction
265 265 268 266 261 258 259 261 264 266 266 266 265 263 264 269 273 276 278 278 279 281 279 280 283 284 285 289 290 287 283 281 280 279 280 281 279 279 279 279 279 276 272 272
265 266 267 264 259 258 259 261 266 266 264 265 265 264 264 268 272 279 282 284 281 278 276 277 278 279 284 288 290 286 282 280 279 277 275 280 279 277 274 275 276 275 268 265
267 268 265 260 259 259 260 261 266 267 265 265 267 266 265 267 273 278 282 283 280 279 279 276 274 276 281 288 290 289 287 284 282 279 274 275 276 274 272 272 273 273 269 263
264 266 266 262 259 260 259 260 263 262 259 262 265 267 267 267 270 274 276 276 275 275 277 272 270 274 281 285 287 287 287 286 282 279 277 274 273 273 272 270 272 273 268 265
264 263 264 266 262 259 256 258 260 260 262 263 264 266 262 264 268 268 267 274 275 274 276 271 271 271 279 282 283 286 286 285 283 281 281 278 276 274 274 272 274 273 267 266
265 263 262 264 265 260 257 256 258 258 263 265 267 270 261 257 265 268 268 276 277 273 274 275 274 274 277 278 280 283 287 284 282 282 282 282 280 277 277 276 273 271 272 273
267 267 265 263 264 263 258 256 256 258 259 262 267 272 270 264 263 268 275 277 278 277 275 276 278 278 276 277 280 283 284 284 282 282 282 280 283 282 280 278 272 269 272 273
265 264 264 264 263 263 263 259 258 260 261 260 264 267 273 268 265 267 272 275 276 277 275 276 278 279 278 278 280 283 284 285 283 282 281 277 279 277 276 277 273 274 273 273
266 262 263 264 263 260 258 255 259 262 262 262 263 266 269 270 268 267 270 273 275 275 273 275 275 275 277 279 279 279 280 282 282 280 278 277 276 274 273 272 272 275 276 273
268 265 264 267 265 263 259 258 261 261 261 264 268 266 265 266 270 274 271 272 273 273 275 275 276 276 276 277 278 279 280 282 282 279 277 277 275 273 272 272 273 274 276 274
271 268 266 265 266 264 263 261 263 259 261 265 268 265 266 270 272 273 272 272 274 276 278 279 278 278 277 277 278 279 278 279 279 279 279 278 275 274 273 272 272 273 274 274
272 270 269 266 265 265 264 262 263 263 263 265 268 265 264 266 269 271 270 271 274 275 276 278 278 276 276 276 276 276 276 277 277 277 277 277 276 274 273 273 274 272 272 271
271 270 270 267 265 263 262 264 264 264 265 265 267 265 267 270 270 272 273 273 274 276 277 276 275 275 276 275 275 274 274 276 277 276 275 274 273 273 273 273 275 274 271 269
271 269 269 270 269 266 264 264 266 266 266 267 267 266 265 269 271 272 274 275 275 274 275 276 275 275 275 276 276 276 276 276 275 275 274 274 273 273 273 273 274 273 272 271
269 269 269 269 267 267 267 267 267 267 267 268 268 268 269 269 272 273 273 275 275 274 272 272 274 274 275 276 277 277 276 274 273 272 271 271 271 272 273 273 272 273 272 272
272 271 271 270 269 269 267 267 268 267 269 271 270 269 270 270 271 272 272 273 275 274 273 272 272 272 274 275 275 275 276 273 272 271 271 271 271 272 273 272 272 271 271 271
270 272 272 270 270 271 270 269 268 267 269 272 273 272 272 272 272 272 272 272 273 274 274 275 275 275 274 273 273 274 276 276 273 272 271 270 270 271 271 272 272 271 271 270
272 271 272 272 271 269 272 270 270 269 269 270 272 273 273 273 272 272 271 273 273 274 274 275 275 275 275 274 273 274 275 275 274 273 272 271 271 271 271 272 272 272 271 271
272 271 272 273 273 272 271 271 271 271 270 271 272 273 274 274 272 271 272 272 273 273 274 275 275 274 274 275 275 274 274 273 273 273 272 272 272 272 272 271 271 270 271 271
272 272 272 274 274 273 273 272 272 273 272 273 274 274 275 275 274 273 273 273 274 273 273 274 275 275 274 274 274 273 273 273 273 273 272 272 272 272 272 272 271 270 270 270
272 272 272 273 274 274 276 275 275 274 276 276 276 277 277 276 276 275 274 274 274 274 273 273 273 274 274 274 275 274 272 272 272 271 271 272 271 272 272 272 271 270 269 268
273 273 273 273 274 276 277 277 276 277 278 278 278 278 279 280 279 279 278 277 276 276 274 273 273 274 274 274 273 274 273 272 272 271 272 272 273 273 272 271 271 270 267 267
274 276 276 275 276 277 277 277 278 279 280 280 280 279 279 281 281 280 281 282 279 277 276 275 274 274 274 273 273 273 273 273 274 274 273 273 274 274 273 272 271 269 267 267
273 275 277 278 278 277 278 279 279 279 280 280 280 280 281 281 281 282 282 282 281 278 277 276 275 274 274 274 274 275 274 273 274 273 272 272 274 274 273 273 272 269 267 267
275 275 277 278 280 279 279 279 279 280 280 280 280 281 282 283 283 283 283 282 280 278 277 277 276 276 275 274 273 273 273 274 274 274 273 272 273 274 274 273 270 269 268 268
276 276 276 278 279 279 280 280 279 279 279 279 280 281 282 284 284 285 284 283 281 279 279 279 279 279 278 276 274 273 272 273 274 275 274 273 272 272 273 273 272 271 270 269
Height
5861 5862 5861 5861 5861 5861 5861 5861 5861 5861 5860 5860 5861 5861 5861 5860 5860 5860 5860 5859 5859 5858 5858 5857 5857 5856 5855 5855 5854 5853 5852 5852 5851 5851 5850 5850 5849 5848 5848 5848 5848 5848 5848 5848
5859 5859 5858 5858 5857 5858 5858 5858 5858 5858 5858 5858 5858 5858 5858 5858 5858 5857 5857 5856 5856 5856 5855 5855 5855 5854 5853 5853 5852 5851 5850 5849 5848 5848 5847 5847 5846 5846 5845 5845 5845 5845 5845 5845
5856 5856 5855 5855 5855 5855 5855 5855 5855 5855 5855 5855 5856 5856 5856 5855 5855 5855 5854 5854 5854 5853 5853 5852 5852 5851 5851 5850 5849 5848 5847 5846 5845 5845 5844 5844 5843 5843 5843 5843 5843 5842 5842 5843
5853 5853 5852 5852 5852 5852 5852 5852 5852 5852 5852 5852 5853 5853 5853 5852 5852 5852 5852 5851 5851 5851 5850 5850 5850 5849 5848 5848 5847 5845 5844 5844 5843 5842 5842 5841 5841 5841 5840 5840 5840 5839 5839 5840
5850 5850 5850 5849 5850 5849 5849 5849 5849 5849 5849 5850 5850 5850 5851 5850 5849 5849 5849 5849 5848 5848 5848 5847 5847 5847 5846 5845 5844 5843 5842 5841 5840 5840 5839 5839 5838 5838 5837 5837 5837 5837 5837 5837
5847 5847 5847 5847 5847 5847 5847 5847 5847 5846 5847 5847 5847 5847 5848 5847 5847 5846 5846 5846 5845 5845 5845 5845 5844 5844 5843 5843 5842 5841 5840 5838 5838 5837 5836 5836 5836 5835 5835 5834 5834 5834 5834 5834
5844 5844 5844 5844 5844 5844 5844 5844 5844 5844 5844 5844 5844 5843 5845 5844 5844 5843 5843 5843 5843 5843 5842 5842 5842 5841 5841 5840 5839 5838 5837 5836 5835 5834 5834 5833 5833 5832 5832 5831 5831 5831 5831 5831
5841 5842 5841 5841 5841 5841 5841 5841 5842 5842 5841 5841 5841 5840 5841 5841 5840 5840 5840 5840 5840 5840 5839 5839 5839 5838 5838 5837 5836 5835 5834 5833 5832 5831 5830 5830 5830 5829 5829 5828 5828 5828 5828 5828
5838 5839 5838 5838 5837 5838 5837 5837 5838 5838 5837 5837 5837 5837 5837 5837 5837 5837 5837 5837 5837 5836 5836 5835 5835 5835 5834 5834 5833 5832 5831 5829 5828 5827 5827 5827 5826 5826 5825 5825 5825 5825 5825 5825
5835 5835 5835 5835 5834 5834 5834 5834 5834 5834 5833 5833 5834 5833 5834 5833 5833 5833 5833 5833 5833 5833 5832 5832 5831 5831 5831 5830 5829 5828 5828 5826 5825 5824 5823 5823 5823 5822 5822 5822 5822 5821 5821 5821
5831 5832 5832 5832 5831 5831 5831 5830 5829 5829 5829 5829 5829 5832 5830 5830 5830 5830 5830 5829 5829 5829 5829 5828 5828 5827 5827 5826 5825 5825 5824 5823 5822 5821 5820 5819 5819 5819 5818 5818 5818 5818 5818 5818
5827 5827 5827 5828 5827 5826 5826 5826 5826 5826 5825 5825 5825 5829 5826 5826 5825 5825 5825 5825 5825 5825 5825 5824 5824 5823 5822 5822 5821 5820 5820 5819 5818 5817 5817 5816 5816 5815 5815 5814 5814 5814 5814 5814
5823 5823 5823 5823 5825 5823 5822 5821 5821 5821 5821 5821 5821 5824 5821 5821 5821 5821 5821 5820 5820 5820 5820 5820 5819 5818 5817 5817 5816 5816 5815 5814 5814 5813 5813 5812 5812 5811 5811 5810 5810 5810 5810 5810
5818 5818 5819 5819 5818 5817 5817 5817 5816 5816 5816 5816 5816 5817 5817 5816 5816 5816 5816 5815 5815 5815 5815 5815 5814 5813 5813 5812 5811 5811 5810 5810 5809 5809 5808 5807 5807 5806 5806 5805 5805 5805 5805 5804
5813 5813 5813 5813 5813 5812 5812 5812 5812 5811 5811 5811 5811 5811 5812 5811 5811 5810 5810 5810 5810 5809 5809 5809 5808 5808 5807 5807 5806 5805 5805 5804 5804 5803 5803 5802 5801 5801 5800 5800 5800 5799 5799 5799
5808 5808 5808 5808 5807 5807 5807 5807 5807 5806 5805 5805 5805 5805 5805 5805 5805 5804 5804 5803 5803 5803 5803 5802 5802 5802 5801 5800 5800 5799 5798 5798 5797 5797 5797 5796 5796 5795 5794 5794 5793 5793 5793 5792
5803 5802 5802 5802 5801 5801 5801 5802 5801 5800 5800 5800 5799 5800 5799 5798 5798 5798 5797 5797 5796 5796 5796 5795 5795 5794 5794 5793 5793 5792 5791 5791 5790 5790 5790 5789 5789 5788 5788 5787 5787 5786 5786 5785
5797 5796 5796 5796 5796 5795 5798 5795 5795 5794 5794 5793 5793 5793 5792 5792 5791 5791 5790 5790 5789 5789 5788 5788 5787 5786 5786 5785 5785 5785 5784 5783 5783 5783 5782 5782 5781 5781 5780 5780 5779 5779 5778 5778
5791 5790 5790 5789 5789 5789 5790 5789 5788 5787 5787 5787 5786 5785 5785 5784 5783 5783 5783 5782 5782 5781 5780 5780 5779 5778 5778 5777 5776 5776 5776 5775 5775 5774 5774 5773 5773 5772 5772 5772 5771 5770 5770 5770
5784 5784 5784 5783 5782 5782 5784 5783 5781 5781 5780 5780 5779 5778 5777 5776 5776 5776 5775 5774 5774 5773 5772 5771 5771 5770 5769 5769 5768 5767 5767 5766 5766 5766 5765 5764 5764 5763 5763 5762 5762 5762 5761 5761
5779 5778 5777 5776 5775 5775 5777 5775 5775 5775 5775 5773 5772 5771 5770 5769 5768 5768 5766 5765 5764 5763 5763 5762 5762 5761 5760 5759 5759 5758 5758 5757 5757 5756 5755 5755 5754 5753 5753 5752 5752 5752 5751 5751
5772 5772 5771 5770 5769 5771 5769 5768 5768 5767 5766 5765 5764 5763 5762 5761 5760 5759 5757 5756 5755 5754 5753 5753 5752 5751 5751 5750 5749 5748 5748 5747 5747 5746 5745 5744 5743 5743 5742 5741 5741 5741 5741 5741
5765 5765 5764 5764 5764 5762 5761 5760 5760 5759 5758 5757 5756 5755 5754 5753 5751 5750 5749 5748 5746 5745 5744 5742 5742 5741 5741 5739 5739 5738 5738 5737 5736 5735 5735 5734 5733 5732 5731 5731 5730 5730 5730 5731
5759 5758 5757 5756 5755 5754 5753 5752 5751 5751 5750 5749 5747 5746 5745 5744 5743 5742 5740 5739 5737 5735 5734 5733 5732 5731 5730 5729 5728 5728 5727 5726 5725 5725 5724 5723 5722 5721 5720 5720 5719 5719 5720 5720
5752 5751 5749 5748 5748 5746 5746 5744 5743 5742 5741 5740 5739 5738 5736 5735 5734 5732 5730 5729 5727 5726 5724 5723 5722 5721 5719 5719 5718 5717 5716 5716 5715 5714 5713 5713 5712 5711 5709 5709 5708 5709 5709 5709
5744 5743 5742 5741 5740 5739 5738 5736 5735 5733 5732 5731 5730 5729 5727 5725 5724 5722 5720 5719 5717 5716 5714 5713 5712 5710 5709 5708 5707 5707 5706 5705 5704 5703 5703 5702 5701 5700 5699 5699 5698 5697 5697 5697